VE2EEG Weather Reports


time (UTC)temp
C
wind
direction
speed
KPH
gust
KPH
rain 1hr
cm
rain 24hr
cm
rain mn
cm
humidity
%
barometer
mb
20260504193015 12 270 11.3 25.7 0.00 0.00 0.00 36 1000.9
20260504192506 12 271 9.7 24.1 0.00 0.00 0.00 38 1001.0
20260504192008 12 240 9.7 24.1 0.00 0.00 0.00 37 1000.9
20260504191515 12 274 8.0 24.1 0.00 0.00 0.00 36 1000.9
20260504191005 12 254 8.0 24.1 0.00 0.00 0.00 38 1000.9
20260504190504 12 329 12.9 24.1 0.00 0.00 0.00 35 1001.0
20260504190012 12 199 14.5 24.1 0.00 0.00 0.00 34 1001.0
20260504185505 12 250 14.5 24.1 0.00 0.00 0.00 35 1001.0
20260504185007 12 262 9.7 27.4 0.00 0.00 0.00 37 1001.2
20260504184516 12 245 16.1 27.4 0.00 0.00 0.00 36 1001.1
20260504184006 12 225 12.9 22.5 0.00 0.00 0.00 36 1001.1
20260504183506 12 236 8.0 22.5 0.00 0.00 0.00 35 1001.2
20260504183015 12 241 11.3 24.1 0.00 0.00 0.00 34 1001.2
20260504182503 12 252 11.3 24.1 0.00 0.00 0.00 33 1001.1
20260504182005 12 245 12.9 25.7 0.00 0.00 0.00 32 1001.2
20260504181504 12 232 12.9 25.7 0.00 0.00 0.00 33 1001.2
20260504181004 12 267 8.0 20.9 0.00 0.00 0.00 35 1001.2
20260504180504 12 215 11.3 19.3 0.00 0.00 0.00 33 1001.2
20260504180010 12 238 11.3 20.9 0.00 0.00 0.00 33 1001.1
20260504175504 12 250 11.3 22.5 0.00 0.00 0.00 35 1001.3
20260504175006 12 233 11.3 22.5 0.00 0.00 0.00 34 1001.4
20260504174515 12 271 11.3 22.5 0.00 0.00 0.00 34 1001.4
20260504174004 12 278 11.3 22.5 0.00 0.00 0.00 36 1001.4
20260504173504 11 332 8.0 20.9 0.00 0.00 0.00 36 1001.5
20260504173016 11 182 8.0 20.9 0.00 0.00 0.00 38 1001.5
20260504172507 11 278 11.3 20.9 0.00 0.00 0.00 35 1001.6
20260504172010 11 232 12.9 20.9 0.00 0.00 0.00 38 1001.6
20260504171515 11 317 6.4 22.5 0.00 0.00 0.00 39 1001.7
20260504171008 11 273 9.7 24.1 0.00 0.00 0.00 38 1001.8
20260504170504 11 243 14.5 24.1 0.00 0.00 0.00 37 1001.9
20260504151008 9 245 19.3 27.4 0.00 0.00 0.00 46 1002.3
20260504150507 9 273 14.5 27.4 0.00 0.00 0.00 47 1002.4
20260504141006 8 232 12.9 27.4 0.00 0.00 0.00 54 1002.5
20260504140506 8 271 17.7 30.6 0.00 0.00 0.00 54 1002.5
20260504130507 6 218 11.3 29.0 0.00 0.00 0.00 63 1002.7
20260504110504 3 261 12.9 24.1 0.00 0.00 0.00 74 1003.1
20260504100503 2 227 3.2 11.3 0.00 0.00 0.00 77 1003.2
20260504082007 3 242 8.0 16.1 0.00 0.00 0.00 78 1002.8
20260504081524 3 233 6.4 16.1 0.00 0.00 0.00 79 1002.8
20260504081007 3 268 6.4 14.5 0.00 0.00 0.00 79 1002.7
20260504080510 3 273 6.4 12.9 0.00 0.00 0.00 80 1002.8
20260504050508 3 260 4.8 9.7 0.00 0.00 0.00 91 1003.6
20260504050024 3 245 4.8 9.7 0.00 0.00 0.00 91 1003.7
20260504045509 3 273 3.2 6.4 0.00 0.00 0.00 91 1003.7
20260504045007 3 246 1.6 6.4 0.00 0.00 0.00 91 1003.8
20260504044534 3 261 4.8 9.7 0.00 0.00 0.00 91 1003.9
20260504044004 3 293 3.2 9.7 0.00 0.00 0.00 90 1003.9
20260504043506 3 283 3.2 6.4 0.00 0.00 0.00 90 1003.9
20260504043019 3 284 3.2 6.4 0.00 0.00 0.00 90 1004.2
20260504042503 3 269 3.2 6.4 0.00 0.00 0.00 90 1004.2
20260504042003 3 260 3.2 6.4 0.00 0.00 0.00 90 1004.2
20260504041517 3 278 3.2 6.4 0.00 0.00 0.00 90 1004.3
20260504041004 3 275 0.0 3.2 0.00 0.00 0.00 90 1004.4
20260504040508 3 275 1.6 6.4 0.00 0.03 0.00 90 1004.4
20260504040023 3 275 1.6 6.4 0.00 0.03 0.00 90 1004.5
20260504035507 3 280 3.2 6.4 0.00 0.03 0.03 90 1004.5
20260504035007 3 323 1.6 6.4 0.00 0.05 0.03 91 1004.5
20260504034525 3 283 1.6 6.4 0.00 0.05 0.03 91 1004.5
20260504034007 3 266 3.2 6.4 0.00 0.08 0.03 91 1004.6
20260504033508 3 277 3.2 6.4 0.00 0.08 0.03 91 1004.6
20260504033009 3 246 3.2 6.4 0.00 0.08 0.03 91 1004.6
20260504032504 3 287 1.6 11.3 0.00 0.08 0.03 91 1004.6
20260504032004 3 250 3.2 12.9 0.00 0.08 0.03 90 1004.5
20260504031519 3 261 3.2 12.9 0.00 0.08 0.03 91 1004.6
20260504031005 3 271 1.6 6.4 0.00 0.08 0.03 90 1004.6
20260504030507 3 302 3.2 6.4 0.00 0.08 0.03 90 1004.7
20260504030021 3 273 1.6 6.4 0.00 0.08 0.03 90 1004.7
20260504025506 3 277 3.2 6.4 0.00 0.08 0.03 90 1004.7
20260504025006 3 262 3.2 6.4 0.00 0.08 0.03 90 1004.6
20260504024524 3 248 3.2 4.8 0.00 0.08 0.03 90 1004.7
20260504024008 3 268 1.6 4.8 0.00 0.08 0.03 90 1004.8
20260504023507 3 281 1.6 4.8 0.00 0.08 0.03 90 1004.8
20260504023028 3 336 1.6 4.8 0.00 0.08 0.03 90 1004.7
20260504022511 3 284 1.6 4.8 0.00 0.08 0.03 90 1004.7
20260504022010 3 261 3.2 4.8 0.00 0.08 0.03 91 1004.8
20260504021514 3 226 1.6 4.8 0.00 0.08 0.03 90 1004.9
20260504021002 3 246 3.2 4.8 0.00 0.08 0.03 90 1004.9
20260504020504 3 233 3.2 4.8 0.00 0.08 0.03 90 1004.9
20260504020014 3 274 3.2 4.8 0.00 0.08 0.03 91 1005.0
20260504015507 3 274 3.2 3.2 0.00 0.08 0.03 91 1005.1
20260504015007 3 274 1.6 3.2 0.00 0.08 0.03 90 1005.1
20260504014522 3 274 1.6 3.2 0.00 0.08 0.03 90 1005.1
20260504014006 3 279 1.6 3.2 0.00 0.08 0.03 91 1005.1
20260504013509 3 299 0.0 3.2 0.00 0.08 0.03 91 1005.1
20260504013023 3 317 0.0 3.2 0.00 0.08 0.03 91 1005.2
20260504012507 3 317 0.0 3.2 0.00 0.08 0.03 91 1005.1
20260504012008 3 322 0.0 3.2 0.00 0.08 0.03 91 1005.2
20260504011526 3 321 1.6 3.2 0.00 0.08 0.03 91 1005.2
20260504011012 3 289 1.6 3.2 0.00 0.08 0.03 91 1005.2
20260504010509 3 352 0.0 3.2 0.00 0.08 0.03 91 1005.3
20260504010010 3 327 1.6 4.8 0.00 0.08 0.03 91 1005.3
20260504005506 3 55 1.6 4.8 0.00 0.08 0.03 90 1005.3
20260504005006 3 60 1.6 8.0 0.00 0.08 0.03 90 1005.2
20260504004519 3 53 1.6 9.7 0.00 0.08 0.03 90 1005.1
20260504004007 3 52 3.2 12.9 0.00 0.08 0.03 90 1005.1
20260504003511 3 76 6.4 12.9 0.00 0.08 0.03 90 1005.1
20260504003022 3 40 4.8 12.9 0.00 0.08 0.03 89 1005.1
20260504002508 3 36 6.4 11.3 0.00 0.08 0.03 89 1005.1
20260504002010 3 25 4.8 11.3 0.00 0.08 0.03 89 1005.0
20260504001527 3 36 3.2 11.3 0.00 0.08 0.03 89 1005.0
20260504001010 3 26 1.6 11.3 0.00 0.08 0.03 89 1005.0
20260504000510 3 42 6.4 14.5 0.00 0.08 0.03 88 1005.0
20260504000028 3 53 4.8 16.1 0.00 0.08 0.03 88 1005.0
20260503235506 3 15 8.0 16.1 0.00 0.08 0.03 88 1005.1
20260503235004 3 55 3.2 12.9 0.00 0.08 0.03 88 1005.1
20260503234519 3 36 4.8 12.9 0.00 0.08 0.03 87 1005.1
20260503234006 3 16 4.8 14.5 0.00 0.08 0.03 87 1005.1
20260503233506 4 340 4.8 14.5 0.00 0.08 0.03 86 1005.0
20260503233019 4 317 6.4 14.5 0.00 0.08 0.03 86 1004.9
20260503232508 4 360 6.4 16.1 0.00 0.08 0.03 85 1005.0
20260503232007 5 332 6.4 16.1 0.00 0.08 0.03 84 1004.9
20260503231524 5 319 4.8 12.9 0.00 0.08 0.03 84 1004.9
20260503231008 5 286 4.8 12.9 0.00 0.08 0.03 84 1004.9
20260503230508 5 260 8.0 12.9 0.00 0.08 0.03 81 1004.9
20260503230025 6 238 4.8 11.3 0.00 0.08 0.03 80 1004.8
20260503225509 6 275 1.6 6.4 0.00 0.08 0.03 80 1004.8
20260503225012 6 286 1.6 11.3 0.00 0.08 0.03 81 1004.8
20260503224527 6 269 4.8 11.3 0.00 0.08 0.03 80 1004.9
20260503224009 7 259 3.2 9.7 0.00 0.08 0.03 76 1004.9
20260503223505 7 292 1.6 12.9 0.00 0.08 0.03 76 1004.9
20260503223017 7 296 4.8 12.9 0.00 0.08 0.03 74 1005.0
20260503222506 7 318 6.4 11.3 0.00 0.08 0.03 74 1005.0
20260503222006 8 340 3.2 9.7 0.00 0.08 0.03 73 1004.9
20260503221521 8 331 4.8 12.9 0.00 0.08 0.03 73 1004.9
20260503221009 8 342 6.4 12.9 0.00 0.08 0.03 72 1004.9
20260503220513 8 346 3.2 8.0 0.00 0.08 0.03 71 1005.0
20260503220026 9 58 3.2 14.5 0.00 0.08 0.03 68 1004.9
20260503215509 8 352 3.2 14.5 0.00 0.08 0.03 69 1004.9
20260503215009 8 41 3.2 11.3 0.00 0.08 0.03 69 1004.9
20260503214539 8 21 4.8 12.9 0.00 0.08 0.03 70 1004.9
20260503214009 8 55 6.4 12.9 0.00 0.08 0.03 69 1004.9
20260503213511 8 75 6.4 12.9 0.00 0.08 0.03 70 1005.1
20260503213027 8 41 8.0 14.5 0.00 0.08 0.03 71 1005.1
20260503212510 8 57 8.0 16.1 0.00 0.08 0.03 70 1005.2
20260503212009 8 44 8.0 16.1 0.00 0.08 0.03 70 1005.3
20260503211523 8 75 8.0 16.1 0.00 0.08 0.03 68 1005.4
20260503211006 8 53 9.7 16.1 0.00 0.08 0.03 69 1005.4
20260503210506 8 28 6.4 14.5 0.00 0.08 0.03 69 1005.5
20260503210025 8 61 6.4 16.1 0.00 0.08 0.03 69 1005.5
20260503205510 8 47 8.0 17.7 0.00 0.08 0.03 67 1005.5
20260503205011 8 57 6.4 17.7 0.00 0.08 0.03 68 1005.5
20260503204530 8 28 9.7 17.7 0.00 0.08 0.03 67 1005.4
20260503204011 8 91 6.4 12.9 0.00 0.08 0.03 66 1005.4
20260503203510 8 60 6.4 9.7 0.00 0.08 0.03 66 1005.4
20260503203028 8 55 4.8 9.7 0.00 0.08 0.03 63 1005.5
20260503202510 8 49 4.8 14.5 0.00 0.08 0.03 62 1005.5
20260503202015 8 11 9.7 12.9 0.00 0.08 0.03 60 1005.6
20260503201518 8 36 4.8 14.5 0.00 0.08 0.03 63 1005.6
20260503201011 8 51 8.0 14.5 0.00 0.08 0.03 64 1005.6
20260503200509 9 49 3.2 12.9 0.00 0.08 0.03 64 1005.7
20260503200033 9 22 6.4 12.9 0.00 0.08 0.03 63 1005.7
20260503195510 9 315 6.4 12.9 0.00 0.08 0.03 67 1005.7
20260503195012 9 344 6.4 14.5 0.00 0.08 0.03 66 1005.7
20260503194527 9 333 8.0 14.5 0.00 0.08 0.03 66 1005.8
20260503194008 9 360 3.2 9.7 0.00 0.08 0.03 70 1005.8
20260503193508 8 326 3.2 12.9 0.00 0.08 0.03 72 1005.9